sat.trackr.live / text

‹ back to catalog

TIANMU-1 19

NORAD 58660 · 2023-208A

PAYLOAD ACTIVE UNKNOWN

§ Identity

Operator
Country
PRC
Launch date
2023-12-27
Launch site
JSC
Launch vehicle
Mass (kg)
RCS (m²)

Purposes: earth_obs

External: N2YO · Heavens-Above · Gunter

§ Orbital elements

Epoch: 2026-05-25T03:44:16.874304Z

Period
94.05 min
Inclination
97.4476°
Eccentricity
0.0005790
Mean motion
15.31164479 rev/d
Perigee alt
468.4 km
Apogee alt
476.3 km
Semi-major
6,850.5 km
B*
2.4609e-4
RAAN
261.3484°
Arg perigee
52.0608°
Mean anomaly
308.1156°
Rev number
13,380

§ Raw data

TIANMU-1 191 58660U 23208A   26145.15575086  .00007333  00000+0  24609-3 0  99942 58660  97.4476 261.3484 0005790  52.0608 308.1156 15.31164479133804

JSON: /api/v1/satellites/58660 · /tle

For live sub-satellite position, see the globe view (requires WebGL).

§ Visibility from observer

Set your observer location to see the next 7 days of passes ≥ 10°. The values pass through the URL so the page stays shareable.

No JS? Fill the form by hand. The geolocation button needs JavaScript.